Baku, Azerbaijan

4:02 PM +04 on May 24, 2018 (GMT +0400)
Bina

Weather History for UBBB - February, 2018

Change the Weather History Date:

Wednesday, February 21, 2018

  Actual Average Record
Temperature  
Mean Temperature 43 °F -  
Max Temperature 45 °F - - ()
Min Temperature 41 °F - - ()
Degree Days  
Heating Degree Days 22    
Moisture  
Dew Point 41 °F    
Average Humidity 94    
Maximum Humidity 100    
Minimum Humidity 85    
Precipitation  
Precipitation 0.08 in - - ()
Sea Level Pressure  
Sea Level Pressure 30.15 in    
Wind  
Wind Speed 5 mph ()    
Max Wind Speed 10 mph    
Max Gust Speed -    
Visibility 4.0 miles    
Events Rain    
T = Trace of Precipitation, MM = Missing Value Source: Averaged Metar Reports

Daily Weather History Graph

Daily Weather History Graph

Search for Another Location

Airport or City:

Astronomy

Feb. 21, 2018 Rise Set
Actual Time 7:25 AM +04 6:21 PM +04
Civil Twilight 6:57 AM +04 6:49 PM +04
Nautical Twilight 6:26 AM +04 7:21 PM +04
Astronomical Twilight 5:54 AM +04 7:52 PM +04
Moon 10:28 AM +04 (2/21) No Moon Set
Length of Visible Light 11h 51m
Length of Day
10h 56m
Waxing Crescent, 29% of the Moon is Illuminated
Feb 21
Waxing Crescent
Feb 23
First Quarter
Mar 2
Full
Mar 9
Last Quarter
Mar 17
New

Hourly Weather History & Observations

Time (+04) Temp. Windchill Dew Point Humidity Pressure Visibility Wind Dir Wind Speed Gust Speed Precip Events Conditions
12:00 AM 42.8 °F 41.1 °F 41.0 °F 93% 30.15 in 4.3 mi East 3.5 mph - N/A Rain Light Rain
12:30 AM 42.8 °F 41.1 °F 41.0 °F 93% 30.15 in 4.3 mi East 3.5 mph - N/A Rain Light Rain
1:00 AM 43 °F - 40 °F 85% 30.15 in 6 mi NNE 2.2 mph - -   Overcast
1:00 AM 42.8 °F 40.1 °F 42.8 °F 100% 30.15 in 4.3 mi East 4.6 mph - N/A Rain Light Rain
1:30 AM 42.8 °F 40.1 °F 41.0 °F 93% 30.12 in 4.3 mi East 4.6 mph - N/A Rain Light Rain
2:00 AM 42.8 °F 40.1 °F 41.0 °F 93% 30.15 in 4.3 mi ENE 4.6 mph - N/A Rain Light Rain
2:30 AM 42.8 °F 39.3 °F 41.0 °F 93% 30.15 in 4.3 mi ENE 5.8 mph - N/A Rain Light Rain
3:00 AM 42.8 °F 40.1 °F 41.0 °F 93% 30.15 in 5.0 mi NNE 4.6 mph - N/A   Overcast
3:30 AM 42.8 °F 41.1 °F 42.8 °F 100% 30.15 in 4.3 mi NNE 3.5 mph - N/A   Overcast
4:00 AM 42 °F - 40 °F 90% 30.15 in 6 mi Calm Calm - - Rain Light Rain
4:00 AM 42.8 °F 41.1 °F 41.0 °F 93% 30.15 in 4.3 mi NNE 3.5 mph - N/A Rain Light Rain
4:30 AM 42.8 °F 39.3 °F 41.0 °F 93% 30.15 in 4.3 mi NNE 5.8 mph - N/A Rain Light Rain
5:00 AM 42.8 °F 41.1 °F 41.0 °F 93% 30.12 in 4.3 mi North 3.5 mph - N/A Rain Light Rain
5:30 AM 42.8 °F - 41.0 °F 93% 30.15 in 4.3 mi North 2.3 mph - N/A   Overcast
6:00 AM 42.8 °F - 41.0 °F 93% 30.15 in 4.3 mi NNW 2.3 mph - N/A   Overcast
6:30 AM 42.8 °F - 41.0 °F 93% 30.15 in 4.3 mi NNW 2.3 mph - N/A   Overcast
7:00 AM 42 °F - 40 °F 91% 30.15 in 6 mi West 2.2 mph - -   Partly Cloudy
7:00 AM 42.8 °F 39.3 °F 41.0 °F 93% 30.15 in 4.3 mi NW 5.8 mph - N/A   Overcast
7:30 AM 42.8 °F 40.1 °F 41.0 °F 93% 30.15 in 2.5 mi West 4.6 mph - N/A Rain Light Rain
8:00 AM 42.8 °F 39.3 °F 41.0 °F 93% 30.15 in 1.2 mi WNW 5.8 mph - N/A Rain Rain
8:30 AM 42.8 °F 38.0 °F 41.0 °F 93% 30.15 in 1.9 mi West 8.1 mph - N/A Rain Light Rain
9:00 AM 42.8 °F 38.6 °F 42.8 °F 100% 30.15 in 1.9 mi WNW 6.9 mph - N/A Rain Light Rain
9:30 AM 42.8 °F 39.3 °F 42.8 °F 100% 30.15 in 3.7 mi West 5.8 mph - N/A Rain Light Rain
10:00 AM 43 °F - 41 °F 91% 30.17 in 2 mi West 4.5 mph - - Rain Light Rain
10:00 AM 42.8 °F 39.3 °F 42.8 °F 100% 30.15 in 5.0 mi WNW 5.8 mph - N/A Rain Light Rain
10:30 AM 42.8 °F 38.6 °F 42.8 °F 100% 30.18 in 5.0 mi NW 6.9 mph - N/A Rain Light Rain
11:30 AM 44.6 °F 40.7 °F 42.8 °F 93% 30.18 in 2.5 mi NNW 6.9 mph - N/A Rain Light Rain
12:00 PM 44.6 °F 41.4 °F 42.8 °F 93% 30.15 in 3.7 mi NNW 5.8 mph - N/A Rain Light Rain
12:30 PM 44.6 °F 40.2 °F 42.8 °F 93% 30.15 in 6.2 mi NNW 8.1 mph - N/A   Overcast
1:00 PM 44 °F - 42 °F 89% 30.15 in 2 mi NNW 4.5 mph - -   Partly Cloudy
1:00 PM 44.6 °F 40.2 °F 42.8 °F 93% 30.15 in 6.2 mi NNW 8.1 mph - N/A   Overcast
1:30 PM 44.6 °F 40.2 °F 42.8 °F 93% 30.15 in 6.2 mi NW 8.1 mph - N/A   Overcast
2:00 PM 44.6 °F 39.2 °F 42.8 °F 93% 30.15 in 6.2 mi NNW 10.4 mph - N/A   Overcast
2:30 PM 44.6 °F 39.2 °F 42.8 °F 93% 30.15 in 5.0 mi NW 10.4 mph - N/A   Overcast
3:00 PM 44.6 °F 39.7 °F 42.8 °F 93% 30.15 in 5.0 mi NNW 9.2 mph - N/A   Overcast
3:30 PM 42.8 °F 37.5 °F 41.0 °F 93% 30.15 in 3.7 mi NNW 9.2 mph - N/A   Overcast
4:00 PM 43 °F - 41 °F 89% 30.15 in 2 mi NW 6.7 mph - -   Overcast
4:00 PM 42.8 °F 37.5 °F 41.0 °F 93% 30.15 in 3.1 mi NNW 9.2 mph - N/A   Light Drizzle
4:30 PM 42.8 °F 38.0 °F 41.0 °F 93% 30.15 in 3.1 mi NNW 8.1 mph - N/A   Light Drizzle
5:00 PM 42.8 °F 38.0 °F 41.0 °F 93% 30.15 in 3.7 mi NNW 8.1 mph - N/A   Light Drizzle
5:30 PM 42.8 °F 38.0 °F 41.0 °F 93% 30.15 in 5.0 mi NNW 8.1 mph - N/A   Overcast
6:00 PM 42.8 °F 38.0 °F 41.0 °F 93% 30.15 in 3.1 mi NNW 8.1 mph - N/A   Light Drizzle
6:30 PM 42.8 °F 37.5 °F 41.0 °F 93% 30.15 in 3.1 mi NW 9.2 mph - N/A   Light Drizzle
7:00 PM 42 °F - 40 °F 89% 30.16 in 2 mi WNW 8.9 mph - - Rain Light Drizzle
7:00 PM 42.8 °F 37.5 °F 41.0 °F 93% 30.15 in 5.0 mi NW 9.2 mph - N/A   Overcast
7:30 PM 41.0 °F 35.2 °F 41.0 °F 100% 30.15 in 5.0 mi NW 9.2 mph - N/A   Overcast
8:00 PM 41.0 °F 35.8 °F 41.0 °F 100% 30.15 in 3.7 mi NW 8.1 mph - N/A   Light Drizzle
8:30 PM 41.0 °F 37.1 °F 41.0 °F 100% 30.18 in - NW 5.8 mph - N/A   Light Drizzle
9:00 PM 41.0 °F 36.4 °F 41.0 °F 100% 30.18 in - NW 6.9 mph - N/A   Light Drizzle
9:30 PM 41.0 °F 37.1 °F 41.0 °F 100% 30.15 in 2.5 mi NNW 5.8 mph - N/A   Light Drizzle
10:00 PM 41 °F - 40 °F 93% 30.17 in 2 mi WNW 6.7 mph - - Rain Light Drizzle
10:00 PM 41.0 °F 37.1 °F 41.0 °F 100% 30.15 in 2.5 mi NW 5.8 mph - N/A   Light Drizzle
10:30 PM 41.0 °F 38.0 °F 41.0 °F 100% 30.15 in 3.1 mi NNW 4.6 mph - N/A   Light Drizzle
11:00 PM 41.0 °F 38.0 °F 41.0 °F 100% 30.15 in 5.0 mi NNW 4.6 mph - N/A   Overcast
11:30 PM 41.0 °F 39.0 °F 41.0 °F 100% 30.15 in 3.7 mi North 3.5 mph - N/A   Overcast